User: anonymous   Login
Location: Unspecified
(0.0000°N, 0.0000°E)
Time: 06:45:52
(UTC+00:00)
Language:

GALILEO 11 (268) - Orbit

View from above orbital plane
View from above orbital plane
View from above satellite
View from above satellite

Ground track
Ground track

The orbit data is extracted from the following two-line orbital elements,

1 41175U 15079B   23336.87028556  .00000052  00000-0  00000-0 0  9995
2 41175  55.3375 126.7363 0001061 351.9880   7.9839  1.70474481 49384
Epoch (UTC): 02 December 2023 20:53:12
Eccentricity: 0.0001061
inclination: 55.3375°
perigee height: 23219 km
apogee height: 23225 km
right ascension of ascending node: 126.7363°
argument of perigee: 351.9880°
revolutions per day: 1.70474481
mean anomaly at epoch: 7.9839°
orbit number at epoch: 4938

The dashed part of the orbit path shows where the satellite is in the earth's shadow,  

DLR